Miscellaneous Local Product
Issued by NWS Hastings, NE

Home | Current Version | Previous Version | Graphics & Text | Print | Product List | Glossary On
Versions: 1 2 3 4 5 6 7 8 9 10 11 12 13 14 15 16 17 18 19 20 21 22 23 24 25 26 27 28 29 30 31 32 33 34 35 36 37 38 39 40 41 42 43 44 45 46 47 48 49 50
101
AXUS43 KGID 182202
MISGRI

GID CWA HOURLY WEATHER ROUNDUP
NATIONAL WEATHER SERVICE HASTINGS NE
500 PM CDT FRI AUG 18 2017

NOTE: "FAIR" INDICATES FEW OR NO CLOUDS BELOW 12,000 FEET WITH NO
SIGNIFICANT WEATHER AND/OR OBSTRUCTIONS TO VISIBILITY.

...SOUTH CENTRAL NEBRASKA...

CITY           SKY/WX    TMP DP  RH WIND       PRES   REMARKS
GRAND ISLAND   SUNNY     87  60  40 NW6       29.95F
HASTINGS       SUNNY     85  62  46 CALM      29.97F
KEARNEY        SUNNY     85  61  44 S3        29.97F
ORD            SUNNY     83  56  39 W6        29.92F
YORK           SUNNY     82  68  61 CALM      29.94F
AURORA         SUNNY     84  62  47 CALM      29.95S
LEXINGTON      SUNNY     86  56  34 SW3       29.99S
HOLDREGE       SUNNY     83  59  44 CALM      29.99S
HEBRON         SUNNY     87  65  48 NW5       29.94S

...NEBRASKA PANHANDLE...

CITY           SKY/WX    TMP DP  RH WIND       PRES   REMARKS
CHADRON        SUNNY     89  39  17 NW10      30.00F
ALLIANCE       SUNNY     85  42  22 W9        30.05F
SCOTTSBLUFF    SUNNY     89  36  15 N7        30.06F
SIDNEY         SUNNY     86  39  19 VRB6      30.11F

...WESTERN AND NORTH CENTRAL NEBRASKA...

CITY           SKY/WX    TMP DP  RH WIND       PRES   REMARKS
VALENTINE      SUNNY     87  47  24 N13       29.99S
AINSWORTH      SUNNY     81  57  44 N9        29.99S
ONEILL         SUNNY     81  62  50 N10       29.95F
BROKEN BOW     SUNNY     91  47  21 NW13      29.96F
IMPERIAL       SUNNY     87  41  19 CALM      30.05F
NORTH PLATTE   SUNNY     88  50  27 W7        30.00S
MCCOOK         SUNNY     89  53  29 VRB5      30.00F

...EASTERN NEBRASKA...

CITY           SKY/WX    TMP DP  RH WIND       PRES   REMARKS
NORFOLK        SUNNY     84  65  52 W6        29.89F
SO SIOUX CITY  CLOUDY    81  67  62 S3        29.88F
TEKAMAH        SUNNY     83  64  52 SW3       29.88F
COLUMBUS       SUNNY     83  67  58 W6        29.92F
ALBION         SUNNY     86  64  47 CALM      29.92F
OMAHA EPPLEY   MOSUNNY   87  62  43 NW8       29.88F
OFFUTT AFB     SUNNY     87  61  42 SW6       29.89S
MILLARD        SUNNY     85  66  52 W8        29.90S
LINCOLN        SUNNY     86  63  45 MISG      29.92F
NEBRASKA CITY  SUNNY     85  64  50 NW5       29.91F
BEATRICE       SUNNY     87  66  49 NW5       29.92F
FALLS CITY     CLOUDY    85  68  56 N5        29.90S

...NORTHERN KANSAS...

CITY           SKY/WX    TMP DP  RH WIND       PRES   REMARKS
GOODLAND       SUNNY     86  53  32 NE8       30.07F
HILL CITY      SUNNY     91  60  35 NE9       29.99S HX  90
NORTON         CLEAR     88  50  27 NE7       29.99
PHILLIPSBURG   SUNNY     90  54  29 N9        29.97S
SMITH CENTER   PTSUNNY   84  63  48 N5        29.96F
HAYS           SUNNY     90  62  39 N9        29.95F HX  90
RUSSELL        SUNNY     93  62  35 N7        29.93F HX  93
CONCORDIA      SUNNY     88  67  49 NE6       29.93F HX  91
SALINA         SUNNY     94  63  35 W9        29.92F HX  95
TOPEKA         SUNNY     90  66  45 W10       29.90F HX  92



USA.gov is the U.S. government's official web portal to all federal, state and local government web resources and services.